Location: Lombard
(41.8800°N, 88.0080°W)
Time: 05:18:50
(UTC-05:00)

Vanguard 2 Rocket - Pass Details

Date: 28 February 2024
Orbit: 555 x 3307 km, 32.9° (Epoch: 12 April)

Event Time Altitude Azimuth Distance (km) Brightness Sun altitude
Rises 17:28:31 0° 271° (W) 5,019 12.8 1.4°
Reaches altitude 10° 17:31:28 10° 266° (W) 4,344 12.6 0.8°
Maximum altitude 17:43:33 48° 197° (SSW) 3,262 10.0 -1.4°
Drops below altitude 10° 18:01:24 10° 132° (SE) 6,220 10.8 -4.7°
Sets 18:06:41 0° 127° (SE) 7,283 11.1 -5.6°
